Location: Kielce
(50.8833°N, 20.6167°E)
Time: 08:11:56
(UTC+01:00)

N. Korean satellite - Visible Passes

Search period start: 04 March 2021 00:00
Search period end: 14 March 2021 00:00
Orbit: 451 x 502 km, 97.2° (Epoch: 03 March)

Date Brightness Start Highest point End Pass type
(mag) Time Alt. Az. Time Alt. Az. Time Alt. Az.
04 Mar 9.1 04:24:05 10° NE 04:26:58 23° E 04:29:51 10° SSE visible
05 Mar 9.9 03:58:26 10° ENE 03:59:58 12° E 04:01:31 10° ESE visible
05 Mar 6.5 05:30:09 10° N 05:33:39 61° WNW 05:37:10 10° SSW visible
06 Mar 7.0 05:03:21 10° NNE 05:06:54 64° ESE 05:10:27 10° S visible
07 Mar 8.5 04:36:48 10° NNE 04:40:02 31° E 04:43:17 10° SSE visible
08 Mar 9.7 04:10:40 10° NE 04:13:04 17° E 04:15:29 10° SE visible
09 Mar 6.5 05:16:15 10° NNE 05:19:51 88° W 05:23:28 10° SSW visible
10 Mar 7.8 04:49:33 10° NNE 04:53:00 44° E 04:56:29 10° S visible
11 Mar 9.2 04:23:09 10° NE 04:26:04 23° E 04:29:01 10° SSE visible
12 Mar 9.9 03:57:25 10° ENE 03:59:02 12° E 04:00:38 10° ESE visible
13 Mar 7.1 05:02:18 10° NNE 05:05:53 64° E 05:09:30 10° S visible
